Weather History for Tekamah, NE

Change the Weather History Date:

Tuesday, January 7, 2014

  Actual Average Record
Temperature  
Mean Temperature 7 °F -  
Max Temperature 23 °F 25 °F 66 °F (2003)
Min Temperature -9 °F 5 °F -21 °F (1968)
Degree Days  
Heating Degree Days 58    
Moisture  
Dew Point -1 °F    
Average Humidity 62    
Maximum Humidity 75    
Minimum Humidity 50    
Precipitation  
Precipitation 0.00 in - - ()
Sea Level Pressure  
Sea Level Pressure 30.21 in    
Wind  
Wind Speed 6 mph (NE)    
Max Wind Speed 13 mph    
Max Gust Speed -    
Visibility 10 miles    
Events      
Averages and records for this station are not official NWS values.
T = Trace of Precipitation, MM = Missing Value Source: NWS Daily Summary

Daily Weather History Graph

Daily Weather History Graph

Search for Another Location

Airport:

Trip Planner

Search our weather history database for the weather conditions in past years. The results will help you decide how hot, cold, wet, or windy it might be!

Date:

Astronomy

Jan. 07, 2014 Rise Set
Actual Time 7:51 AM CST 5:10 PM CST
Civil Twilight 7:20 AM CST 5:41 PM CST
Nautical Twilight 6:46 AM CST 6:16 PM CST
Astronomical Twilight 6:12 AM CST 6:50 PM CST
Moon 11:34 AM CST (1/7) No Moon Set
Length of Visible Light 10h 20m
Length of Day
9h 18m
Waxing Crescent, 46% of the Moon is Illuminated
Jan 7
Waxing Crescent
Jan 7
First Quarter
Jan 15
Full
Jan 23
Last Quarter
Jan 30
New

Hourly Weather History & Observations

Time (CST) Temp. Windchill Dew Point Humidity Pressure Visibility Wind Dir Wind Speed Gust Speed Precip Events Conditions
12:54 AM -9.0 °F -22.3 °F -16.1 °F 71% 30.34 in 10.0 mi SE 5.8 mph - N/A   Clear
1:54 AM -9.0 °F -25.2 °F -16.1 °F 71% 30.30 in 10.0 mi SE 8.1 mph - N/A   Clear
2:54 AM -8.0 °F - -15.0 °F 71% 30.29 in 10.0 mi Calm Calm - N/A   Mostly Cloudy
3:54 AM -9.0 °F - -15.0 °F 75% 30.25 in 10.0 mi Calm Calm - N/A   Clear
4:54 AM -6.0 °F -14.7 °F -13.0 °F 72% 30.20 in 10.0 mi SE 3.5 mph - N/A   Partly Cloudy
5:54 AM 1.0 °F -12.9 °F -7.1 °F 69% 30.17 in 10.0 mi SSE 8.1 mph - N/A   Overcast
6:54 AM 3.9 °F -8.2 °F -6.0 °F 64% 30.16 in 10.0 mi SE 6.9 mph - N/A   Overcast
7:54 AM 6.1 °F -6.8 °F -2.9 °F 67% 30.16 in 10.0 mi South 8.1 mph - N/A   Overcast
8:54 AM 8.1 °F -4.3 °F -0.9 °F 67% 30.14 in 10.0 mi South 8.1 mph - N/A   Overcast
9:54 AM 12.0 °F 2.7 °F 1.9 °F 64% 30.14 in 10.0 mi SSE 5.8 mph - N/A   Scattered Clouds
10:54 AM 15.1 °F - 3.0 °F 59% 30.17 in 10.0 mi Calm Calm - N/A   Clear
11:54 AM 17.1 °F 10.0 °F 3.9 °F 56% 30.14 in 10.0 mi NNW 4.6 mph - N/A   Clear
12:54 PM 21.0 °F 12.4 °F 5.0 °F 50% 30.12 in 10.0 mi North 6.9 mph - N/A   Clear
1:54 PM 21.9 °F 12.5 °F 6.1 °F 51% 30.12 in 10.0 mi North 8.1 mph - N/A   Clear
2:54 PM 23.0 °F 15.8 °F 7.0 °F 50% 30.16 in 10.0 mi North 5.8 mph - N/A   Clear
3:54 PM 19.9 °F 10.1 °F 5.0 °F 52% 30.18 in 10.0 mi North 8.1 mph - N/A   Mostly Cloudy
4:54 PM 19.9 °F 10.1 °F 6.1 °F 55% 30.20 in 10.0 mi North 8.1 mph - N/A   Overcast
5:54 PM 18.0 °F 4.8 °F 6.1 °F 60% 30.21 in 10.0 mi North 12.7 mph - N/A   Overcast
6:54 PM 19.0 °F 8.2 °F 6.1 °F 57% 30.23 in 10.0 mi North 9.2 mph - N/A   Overcast
7:54 PM 18.0 °F 6.9 °F 5.0 °F 57% 30.25 in 10.0 mi North 9.2 mph - N/A   Overcast
8:54 PM 18.0 °F 8.7 °F 6.1 °F 60% 30.26 in 10.0 mi North 6.9 mph - N/A   Overcast
9:54 PM 18.0 °F 7.7 °F 6.1 °F 60% 30.26 in 10.0 mi North 8.1 mph - N/A   Overcast
10:54 PM 18.0 °F - 6.1 °F 60% 30.29 in 10.0 mi Calm Calm - N/A   Overcast
11:54 PM 17.1 °F 8.7 °F 6.1 °F 62% 30.30 in 10.0 mi NNW 5.8 mph - N/A   Overcast